Location: Marcé
(47.5801°N, 0.3280°W)
Time: 23:56:30
(UTC+01:00)

Transit 2A - Pass Details

Date: 06 December 2021
Orbit: 591 x 967 km, 66.7° (Epoch: 16 January)

Event Time Altitude Azimuth Distance (km) Brightness Sun altitude
Rises 01:53:45 0° 239° (WSW) 3,362 - -62.1°
Reaches altitude 10° 01:56:15 10° 247° (WSW) 2,487 - -61.8°
Maximum altitude 02:01:44 41° 317° (NW) 1,303 - -61.3°
Drops below altitude 10° 02:07:38 10° 26° (NNE) 2,680 - -60.7°
Sets 02:10:26 0° 34° (NE) 3,651 - -60.4°
